Volver al catálogo

STARLINK-32264

ActivoComunicacionesVLEO
NORAD 61642·PAYLOAD·🇺🇸 United States

Lanzado Oct 23, 2024 desde Cape Canaveral Space Force Station

Loading…

Próximos Pases (próximas 24 horas)

TLE

ActualizadoSource: CelesTrak SupGP

Época: Sep 15, 2026, 03:49 UTC

1 61642C 24191X   26258.15951389  .00159220  00000+0  90768-3 0  2589
2 61642  42.9835 121.0018 0027484 247.2696 297.7588 15.77297209    12

Sigue STARLINK-32264 en tiempo real con AllMySat

Download on the App Store